Location: Blanot
(47.1713°N, 4.2340°E)
Time: 10:06:06
(UTC+00:00)

Cosmos 1241 Rocket - Pass Details

Date: 14 July 2020
Orbit: 935 x 1012 km, 65.8° (Epoch: 05 August)

Event Time Altitude Azimuth Distance (km) Brightness Sun altitude
Rises 01:23:14 0° 323° (NW) 3,682 7.9 -18.0°
Reaches altitude 10° 01:25:47 10° 323° (NW) 2,743 7.2 -17.8°
Maximum altitude 01:32:14 84° 236° (WSW) 1,006 4.5 -17.4°
Drops below altitude 10° 01:38:46 10° 150° (SSE) 2,774 6.6 -16.9°
Enters shadow 01:41:09 - 149° (SSE) 3,646 7.2 -16.7°
